Cartersville, GA

10:08 AM EDT on August 22, 2017 (GMT -0400)
Cartersville

Weather History for KVPC - October, 2012

Change the Weather History Date:

Sunday, October 28, 2012

  Actual Average Record
Temperature  
Mean Temperature 50 °F 57 °F  
Max Temperature 54 °F 70 °F 83 °F (2016)
Min Temperature 48 °F 44 °F 24 °F (2001)
Degree Days  
Heating Degree Days 14 8  
Month to date heating degree days 145  
Since 1 July heating degree days 163  
Cooling Degree Days 0 1  
Month to date cooling degree days 38  
Year to date cooling degree days 1510  
Moisture  
Dew Point 42 °F    
Average Humidity 73    
Maximum Humidity 86    
Minimum Humidity 62    
Precipitation  
Precipitation 0.00 in 0.12 in 1.12 in (2002)
Month to date precipitation 3.05  
Year to date precipitation 41.26  
Sea Level Pressure  
Sea Level Pressure 29.87 in    
Wind  
Wind Speed 6 mph (NNW)    
Max Wind Speed 15 mph    
Max Gust Speed 25 mph    
Visibility 10 miles    
Events      
T = Trace of Precipitation, MM = Missing Value Source: NWS Daily Summary

Daily Weather History Graph

Daily Weather History Graph

Search for Another Location

Airport or City:

Trip Planner

Search our weather history database for the weather conditions in past years. The results will help you decide how hot, cold, wet, or windy it might be!

Date:

Astronomy

Oct. 28, 2012 Rise Set
Actual Time 7:55 AM EDT 6:49 PM EDT
Civil Twilight 7:30 AM EDT 7:15 PM EDT
Nautical Twilight 7:00 AM EDT 7:45 PM EDT
Astronomical Twilight 6:31 AM EDT 8:14 PM EDT
Moon 6:06 PM EDT (10/28) 6:49 AM EDT (10/28)
Length of Visible Light 11h 45m
Length of Day
10h 53m
Waxing Gibbous, 99% of the Moon is Illuminated
Oct 28
Waxing Gibbous
Oct 29
Full
Nov 6
Last Quarter
Nov 13
New
Nov 20
First Quarter

Hourly Weather History & Observations

Time (EDT) Temp. Dew Point Humidity Pressure Visibility Wind Dir Wind Speed Gust Speed Precip Events Conditions
12:53 AM 51.1 °F 46.0 °F 83% 29.85 in 10.0 mi North 6.9 mph - N/A   Overcast
1:53 AM 50.0 °F 45.0 °F 83% 29.83 in 10.0 mi Variable 6.9 mph - N/A   Overcast
2:53 AM 50.0 °F 46.0 °F 86% 29.82 in 10.0 mi Variable 3.5 mph - N/A   Overcast
3:53 AM 50.0 °F 46.0 °F 86% 29.81 in 10.0 mi NNW 4.6 mph - N/A   Overcast
4:53 AM 51.1 °F 46.0 °F 83% 29.81 in 10.0 mi Variable 3.5 mph - N/A   Overcast
5:53 AM 51.1 °F 45.0 °F 80% 29.81 in 10.0 mi Calm Calm - N/A   Overcast
6:53 AM 51.1 °F 45.0 °F 80% 29.83 in 10.0 mi Calm Calm - N/A   Overcast
7:53 AM 51.1 °F 45.0 °F 80% 29.83 in 10.0 mi Variable 6.9 mph - N/A   Overcast
8:26 AM 51.8 °F 44.6 °F 76% 29.84 in 10.0 mi NNW 3.5 mph - N/A   Overcast
8:35 AM 51.8 °F 44.6 °F 76% 29.84 in 10.0 mi Variable 4.6 mph - N/A   Overcast
8:53 AM 51.1 °F 45.0 °F 80% 29.84 in 10.0 mi Variable 3.5 mph - N/A   Overcast
9:53 AM 52.0 °F 45.0 °F 77% 29.86 in 10.0 mi Variable 5.8 mph - N/A   Overcast
10:53 AM 52.0 °F 44.1 °F 74% 29.86 in 10.0 mi Variable 5.8 mph - N/A   Overcast
11:53 AM 53.1 °F 44.1 °F 71% 29.86 in 10.0 mi North 10.4 mph 24.2 mph N/A   Overcast
1:53 PM 53.1 °F 43.0 °F 69% 29.85 in 10.0 mi Variable 5.8 mph - N/A   Overcast
2:53 PM 53.1 °F 43.0 °F 69% 29.85 in 10.0 mi Variable 5.8 mph 20.7 mph N/A   Overcast
3:53 PM 51.1 °F 42.1 °F 71% 29.86 in 10.0 mi NNW 11.5 mph 19.6 mph N/A   Overcast
4:53 PM 50.0 °F 41.0 °F 71% 29.88 in 10.0 mi NNW 8.1 mph 21.9 mph N/A   Overcast
5:27 PM 51.8 °F 39.2 °F 62% 29.90 in 10.0 mi NNW 12.7 mph 20.7 mph N/A   Overcast
5:53 PM 51.1 °F 39.9 °F 66% 29.88 in 10.0 mi NNW 11.5 mph 21.9 mph N/A   Overcast
6:29 PM 50.0 °F 39.2 °F 66% 29.92 in 10.0 mi NNW 9.2 mph 24.2 mph N/A   Overcast
6:49 PM 50.0 °F 39.2 °F 66% 29.92 in 10.0 mi NNW 8.1 mph 23.0 mph N/A   Overcast
6:53 PM 50.0 °F 39.0 °F 66% 29.91 in 10.0 mi North 11.5 mph 23.0 mph N/A   Overcast
7:53 PM 50.0 °F 37.9 °F 63% 29.92 in 10.0 mi NNW 8.1 mph 25.3 mph N/A   Overcast
8:53 PM 48.9 °F 37.9 °F 66% 29.93 in 10.0 mi North 9.2 mph 20.7 mph N/A   Overcast
9:53 PM 48.9 °F 37.9 °F 66% 29.93 in 10.0 mi NNW 10.4 mph 21.9 mph N/A   Overcast
10:53 PM 48.0 °F 37.0 °F 66% 29.94 in - NNW 15.0 mph 25.3 mph N/A   Unknown
11:53 PM 48.0 °F 36.0 °F 63% 29.94 in 10.0 mi North 9.2 mph 23.0 mph N/A   Overcast